Helicity
7 8 -10 37 33 65 70 90 86 36 27 72 -20 -3 4 93 45 73 148 258 114 102 91 176 98 57 97 95 186 282 187 322 241 18 48 -39 10 25 9 42 62 127 117 75
-7 -3 35 56 99 101 48 60 28 5 56 51 -14 -18 -0 23 64 11 111 183 167 135 108 187 131 108 92 59 203 242 199 211 148 35 12 -24 23 20 27 90 74 74 52 60
5 8 100 80 61 24 20 17 22 23 31 37 47 46 57 13 98 44 27 140 155 124 161 247 153 116 101 55 98 115 108 127 120 66 57 74 25 1 23 50 68 106 108 84
8 20 40 40 16 -6 -8 23 33 30 8 -15 10 13 64 38 79 96 69 49 117 117 212 231 146 131 110 105 152 90 71 77 76 49 42 18 20 54 59 67 64 61 75 77
5 10 35 16 -7 -12 -14 55 32 7 -5 -2 -5 20 148 77 14 82 46 54 33 134 206 164 122 153 138 121 113 108 74 72 61 32 16 13 15 35 70 52 43 64 105 87
24 36 30 9 4 25 11 30 7 1 17 25 28 6 48 81 60 20 94 83 53 127 174 149 151 147 106 152 116 124 86 73 41 30 31 44 46 46 61 32 28 36 62 53
2 8 28 10 7 22 13 9 16 17 46 74 261 117 35 49 96 111 100 73 51 133 181 128 212 125 122 132 126 129 83 44 17 16 25 43 39 34 61 38 47 54 49 24
-0 26 47 50 2 7 20 -8 -0 5 -1 34 74 138 -21 108 100 131 71 28 78 126 164 134 178 121 110 127 115 123 86 66 6 27 38 33 25 32 78 58 64 58 44 14
-7 20 30 38 29 6 2 11 -8 16 32 25 54 80 69 104 38 65 46 83 74 108 147 152 160 147 117 100 93 105 92 62 11 31 38 28 40 57 55 52 60 61 32 14
9 12 34 57 49 13 7 5 12 35 18 21 8 95 78 188 96 91 107 113 92 89 124 147 191 203 149 96 43 34 104 53 25 38 25 27 31 49 42 30 68 61 21 3
16 41 14 102 47 -8 40 18 33 23 19 34 22 69 96 149 80 109 52 67 68 70 136 183 187 175 151 138 67 128 73 35 46 33 30 29 41 61 30 32 56 44 17 -1
22 31 25 10 8 35 -17 23 43 38 36 31 23 60 8 43 -25 -6 91 77 59 105 139 126 188 151 180 137 110 107 15 41 48 62 47 35 90 59 29 44 41 41 22 4
61 41 45 21 22 12 62 20 19 33 43 39 59 47 154 224 127 -22 117 75 59 102 198 163 181 132 119 107 185 15 31 82 83 66 38 11 79 58 27 49 43 43 11 14
85 65 54 20 68 87 89 40 10 -2 42 22 7 135 -27 65 368 555 112 79 81 179 150 180 167 160 214 254 268 -17 41 81 86 29 20 70 73 61 41 54 54 46 19 20
114 125 102 40 42 11 86 76 67 18 18 20 21 43 13 170 264 502 166 78 87 116 132 168 171 210 203 173 96 52 2 71 61 28 47 73 85 81 56 79 54 38 33 43
63 75 61 66 45 28 19 18 17 14 3 19 -6 17 257 107 21 -29 92 35 41 58 117 159 144 147 121 93 23 12 64 75 42 38 55 80 118 98 95 87 65 43 55 47
86 65 95 37 11 17 42 30 23 21 13 15 1 156 83 65 -18 75 93 35 18 39 81 174 144 129 115 43 30 12 76 58 44 23 42 100 166 109 113 110 79 59 65 51
202 177 116 67 31 52 4 71 144 122 37 68 49 63 62 -103 -91 36 39 72 34 38 49 143 182 156 73 18 14 25 80 47 44 25 47 131 163 145 143 200 130 89 90 83
118 119 102 78 63 38 23 50 19 24 -0 23 58 33 191 367 79 168 133 150 57 73 122 200 183 116 106 145 135 80 111 54 111 92 84 95 150 185 167 280 188 128 126 112
41 82 86 98 121 56 41 36 116 154 53 112 132 104 115 67 50 43 81 122 205 308 392 413 463 474 324 245 199 250 167 189 168 173 152 189 156 127 202 277 221 163 139 154
68 89 74 63 81 81 48 59 -6 231 73 131 211 143 11 -3 125 107 82 123 184 254 375 276 278 370 307 241 208 205 216 222 168 152 119 134 180 181 283 309 249 207 187 241
41 85 87 76 80 42 47 56 61 105 90 106 93 108 146 143 122 115 96 88 98 187 318 356 281 218 260 324 308 283 225 152 139 128 155 169 205 227 265 336 317 247 264 257
65 89 43 70 41 92 117 122 159 220 182 116 61 76 96 125 118 84 90 83 133 192 206 166 129 138 191 205 160 156 125 133 142 165 201 208 231 242 259 301 305 360 330 270
111 69 66 76 63 110 109 154 207 264 163 117 113 110 96 87 77 100 99 84 106 100 130 127 128 121 136 130 123 121 122 118 145 171 179 159 181 200 233 246 247 242 214 189
124 144 193 99 67 49 109 244 160 150 140 106 104 117 119 89 99 113 85 97 102 117 112 121 120 113 117 109 125 124 128 151 168 169 145 148 152 156 167 194 177 160 138 116
49 98 219 141 233 189 116 96 111 87 79 84 76 104 120 99 71 36 43 86 94 95 126 126 103 80 91 108 128 136 125 133 135 133 111 118 123 113 108 114 143 176 132 126
Wind_Speed
20 26 8 49 28 44 43 43 41 34 27 29 12 27 19 21 24 18 23 21 18 18 20 22 20 19 17 14 9 12 21 23 30 28 59 44 42 26 22 19 14 22 14 6
35 37 53 38 37 43 48 51 50 27 24 27 11 8 16 16 21 21 16 18 17 18 19 19 20 18 18 16 24 21 25 26 26 34 27 53 34 24 21 22 19 17 17 13
49 22 32 35 42 43 51 51 40 43 33 21 4 6 6 9 15 17 19 15 18 16 19 18 18 18 19 16 19 24 25 25 25 30 32 41 30 26 24 23 22 28 28 27
35 54 33 39 34 40 46 49 23 44 36 10 33 18 15 12 11 13 20 21 15 17 18 17 18 19 20 22 27 27 24 24 24 28 30 29 30 33 35 37 44 37 26 25
29 37 42 33 34 30 34 37 40 33 29 13 2 14 28 18 20 7 22 25 21 18 18 17 19 22 24 26 26 27 27 29 28 28 31 34 34 38 39 45 41 32 29 34
55 32 39 38 29 32 39 42 40 33 5 6 7 15 16 18 15 26 26 27 20 19 17 18 21 24 22 26 26 26 27 28 28 29 33 36 37 40 46 46 49 40 48 49
26 37 24 32 27 18 29 33 36 24 11 36 48 44 40 28 19 22 27 25 22 18 18 18 20 22 24 24 26 26 25 26 26 29 31 34 36 38 38 48 49 44 52 54
23 29 9 15 22 23 24 32 41 56 54 46 23 40 36 18 22 22 25 25 22 20 19 18 19 22 22 23 24 26 25 24 25 27 30 32 35 33 46 48 38 51 54 56
39 35 5 3 15 29 36 30 38 52 69 66 31 18 33 44 34 17 26 25 23 21 20 20 20 21 21 21 21 22 22 21 21 23 27 30 36 42 44 43 47 52 56 55
42 32 14 13 35 36 33 55 38 30 44 59 61 39 42 19 41 18 25 24 24 23 23 22 23 23 22 21 19 17 19 17 17 21 24 28 34 40 44 43 51 56 54 55
53 38 32 14 23 31 21 31 45 60 65 68 67 42 25 20 34 14 17 22 24 23 24 24 24 24 22 22 21 22 18 17 16 19 23 27 32 39 42 46 52 55 52 53
40 44 46 30 23 16 27 48 28 38 52 44 68 44 22 16 16 24 20 22 21 21 23 25 26 26 25 22 20 19 19 17 15 19 22 27 32 38 42 47 51 51 54 52
43 45 54 44 50 23 31 48 56 55 58 72 63 48 48 62 40 23 17 18 19 22 24 25 27 26 26 27 29 22 21 18 16 19 22 26 30 36 39 44 47 50 51 51
45 51 43 54 39 45 46 26 42 38 48 68 56 31 9 32 48 58 12 17 23 23 22 25 26 27 32 31 35 7 41 37 24 27 27 27 30 33 37 40 44 47 48 49
49 55 56 67 69 59 13 23 58 8 17 54 69 59 45 33 35 54 20 20 27 24 23 23 23 24 27 29 32 34 36 32 30 31 29 28 29 32 35 39 42 43 45 47
59 61 61 75 72 70 75 57 56 50 50 52 71 69 29 45 38 55 20 26 24 18 20 20 19 20 21 26 29 32 31 32 31 31 30 30 29 31 34 36 39 40 43 44
51 51 57 70 64 69 72 46 45 47 43 67 66 26 24 24 16 16 21 23 19 17 17 17 16 16 17 21 25 27 28 26 26 25 25 25 25 27 31 33 36 36 39 40
45 49 53 65 64 68 52 53 52 49 52 45 55 26 17 36 29 27 26 19 19 21 18 14 12 13 12 18 19 23 23 22 22 20 26 20 21 22 26 30 33 33 35 38
55 54 59 64 65 65 54 39 62 29 50 41 52 47 31 37 31 27 29 30 29 23 21 19 9 8 11 15 14 14 17 18 18 20 23 24 24 19 21 26 29 29 32 33
62 47 58 65 65 71 68 35 40 58 28 39 42 49 48 51 15 35 35 35 36 36 31 26 22 17 16 20 18 19 22 26 31 32 32 37 36 21 22 22 25 27 27 28
55 59 54 63 72 78 65 52 34 59 49 39 36 40 55 45 36 27 31 35 37 34 32 27 22 21 28 30 24 25 28 32 35 39 40 42 41 32 29 26 25 24 25 27
47 54 62 66 72 90 72 77 51 34 30 35 36 33 30 30 32 31 34 37 34 33 32 29 27 28 32 34 22 24 29 33 32 33 38 40 37 36 29 31 31 27 24 23
51 46 54 52 56 49 37 34 30 31 32 37 37 34 30 29 31 33 34 35 35 32 29 28 28 27 29 29 27 30 30 31 31 34 35 36 36 34 34 29 34 30 26 26
44 37 43 41 46 31 32 28 32 35 34 33 34 36 34 33 33 31 33 31 31 29 27 26 24 25 26 27 27 26 29 30 32 33 34 34 34 34 34 35 33 30 28 27
44 52 50 53 38 35 23 26 29 30 33 32 31 32 33 29 32 31 32 30 28 27 24 22 23 24 24 25 27 27 28 29 30 31 31 32 32 32 33 34 35 33 33 29
31 33 43 43 38 42 46 10 25 29 31 32 31 32 32 29 29 28 30 29 26 23 25 26 25 23 23 24 27 28 26 26 26 28 29 28 29 30 31 32 35 39 36 33
Wind_Direction
312 293 100 215 167 290 282 273 285 327 352 346 87 16 42 62 56 82 80 69 91 106 112 94 91 87 72 60 63 48 30 24 13 333 245 252 181 121 130 128 103 42 52 68
276 281 240 289 298 290 269 257 258 288 353 354 45 91 33 47 54 64 80 85 82 100 111 98 86 75 58 51 23 26 47 92 100 88 81 196 197 135 100 80 71 66 58 58
255 322 305 300 293 290 268 268 236 306 318 1 97 163 210 132 64 56 54 98 90 106 108 82 81 75 56 62 39 33 49 90 111 126 128 151 140 90 92 76 61 46 38 27
284 263 309 299 301 291 288 296 332 306 329 18 5 348 22 106 68 69 80 71 88 82 99 84 82 76 67 61 55 33 52 72 95 106 75 85 82 62 35 24 12 25 42 42
293 290 288 304 301 309 300 320 313 329 333 357 126 12 45 13 32 80 82 68 51 81 88 84 77 73 73 68 60 58 40 25 40 57 54 47 52 41 34 15 28 39 42 35
263 311 292 291 305 305 297 309 313 323 359 312 325 337 17 28 24 6 23 18 44 68 75 74 71 64 75 68 68 59 52 27 30 49 30 33 15 13 8 19 15 34 21 16
293 288 313 301 307 314 309 311 318 332 342 331 328 277 293 353 37 12 7 27 37 71 76 74 61 66 64 69 65 65 57 48 46 60 59 40 29 44 45 21 24 30 16 7
299 288 256 308 300 310 312 300 303 300 301 330 342 324 222 16 16 13 18 16 49 79 79 85 73 68 66 70 70 70 60 47 58 53 42 42 34 58 23 32 48 26 15 2
294 301 360 227 316 297 297 300 299 302 283 296 319 360 357 339 340 29 47 40 62 78 84 89 85 78 74 78 81 72 69 53 47 26 26 36 29 22 32 43 38 29 16 16
276 297 323 324 298 296 297 282 307 309 306 299 294 323 313 325 298 45 35 49 65 78 87 89 85 77 79 81 83 84 65 55 37 10 23 40 38 28 33 45 35 27 26 19
260 283 300 321 316 305 307 306 292 286 283 289 276 316 332 318 317 11 56 67 71 77 77 75 77 75 80 86 84 74 66 69 22 30 45 46 40 31 37 36 30 28 33 12
265 275 277 297 325 317 302 299 309 297 293 300 285 315 7 26 140 330 82 64 66 70 75 80 75 78 75 78 75 80 84 75 32 25 36 41 38 31 32 25 25 33 29 22
264 267 273 290 292 309 299 293 286 288 288 273 290 305 306 285 294 331 15 30 59 71 67 73 78 78 83 79 55 115 96 70 44 33 56 73 46 33 26 23 29 28 22 18
273 267 275 273 305 301 300 300 297 299 295 278 289 317 353 317 316 302 20 54 64 59 70 76 79 76 75 62 60 296 193 108 71 78 83 56 43 33 30 30 27 30 25 24
266 267 271 263 273 277 329 313 240 321 309 287 269 287 307 327 304 243 89 62 62 65 79 79 81 73 76 74 95 105 128 89 85 95 87 67 56 44 36 25 26 27 26 23
260 267 272 263 267 271 263 286 290 300 308 293 269 286 345 333 316 234 47 53 46 58 76 78 80 69 80 92 106 118 97 90 88 101 95 86 62 50 35 25 23 24 23 22
265 271 272 269 274 271 267 292 296 297 298 268 271 313 354 341 21 177 43 32 43 65 59 71 80 74 74 94 108 98 73 70 76 85 94 76 58 40 33 24 20 16 17 20
275 274 275 272 272 270 283 301 288 290 285 298 283 317 70 131 111 23 7 43 54 57 46 52 67 65 66 103 105 99 76 75 76 63 22 44 44 33 27 24 17 15 17 13
268 273 274 272 271 271 275 307 272 301 272 296 293 301 302 295 322 359 1 13 25 41 40 18 30 71 27 11 41 72 94 79 51 32 13 17 6 17 20 15 15 13 13 16
265 275 271 269 272 265 262 323 311 278 299 307 310 300 299 136 2 329 354 2 10 9 9 358 352 342 343 345 349 354 358 358 350 358 353 344 343 0 3 9 11 10 12 15
261 263 267 269 267 263 270 298 344 276 284 318 325 326 307 314 341 4 359 360 360 1 355 351 343 325 314 317 325 328 337 339 340 338 339 337 337 346 344 354 1 6 9 8
264 262 263 267 269 260 277 275 289 297 324 325 336 342 339 341 344 354 356 358 4 357 346 340 331 319 312 312 333 330 332 339 353 360 348 347 354 354 348 340 349 359 11 11
273 266 268 268 277 285 301 298 306 315 318 324 318 328 337 341 342 348 356 356 359 1 353 342 334 332 319 318 323 318 331 337 349 348 357 1 360 1 356 357 333 354 10 4
272 282 269 279 278 286 292 298 307 313 315 319 322 318 321 326 332 340 342 348 355 359 360 351 346 339 332 328 331 332 328 332 338 349 356 0 2 359 357 355 356 357 358 357
281 275 275 267 285 279 301 299 310 310 315 316 320 323 323 323 322 329 331 336 343 349 357 357 347 343 339 334 332 335 332 336 345 353 358 1 8 6 6 3 3 6 5 7
313 284 269 266 286 291 285 343 321 312 313 313 315 318 322 322 323 325 329 332 335 340 342 340 340 345 342 345 335 334 340 346 350 349 357 8 15 18 18 13 10 8 12 14